sat.trackr.live / text

‹ back to catalog

STARLINK-35611

NORAD 66427 · 2025-259F

PAYLOAD ACTIVE UNKNOWN

§ Identity

Operator
Country
US
Launch date
2025-11-11
Launch site
AFETR
Launch vehicle
Mass (kg)
RCS (m²)

Purposes: comms

External: N2YO · Heavens-Above · Gunter

§ Orbital elements

Epoch: 2026-09-20T10:09:18.868320Z

Period
94.27 min
Inclination
43.0005°
Eccentricity
0.0001250
Mean motion
15.27584038 rev/d
Perigee alt
482.2 km
Apogee alt
483.9 km
Semi-major
6,861.2 km
B*
3.0911e-4
RAAN
254.5642°
Arg perigee
268.8526°
Mean anomaly
91.2182°
Rev number
4,927

§ Raw data

STARLINK-356111 66427U 25259F   26263.42313505  .00008255  00000+0  30911-3 0  99962 66427  43.0005 254.5642 0001250 268.8526  91.2182 15.27584038 49270

JSON: /api/v1/satellites/66427 · /tle

For live sub-satellite position, see the globe view (requires WebGL).

§ Visibility from observer

Set your observer location to see the next 7 days of passes ≥ 10°. The values pass through the URL so the page stays shareable.

No JS? Fill the form by hand. The geolocation button needs JavaScript.